Salvador Airport, Brazil

8:33 AM -03 en Octubre 20, 2018 (GMT -0300)
DEP. L. E. Magalhaes International

Tiempo Historia de SBSV - Enero, 2018

Change the Weather History Date:

Viernes, Enero 12, 2018

  Actual Average Record
Temperature  
Temperatura media 79 ° F -  
Temperatura máxima 84 ° F 85 ° F 89 ° F (2005)
Temperatura mínima 74 ° F 75 ° F 71 ° F (1999)
Cooling Degree Days 14    
Growing Degree Days 29 (Base 50)    
Moisture  
Punto de rocío 71 ° F    
Average Humidity 73    
Maximum Humidity 94    
Minimum Humidity 58    
Precipitación  
Precipitación 0.00 pul - - ()
Presión al nivel del mar  
Presión al nivel del mar 29.94 pul    
Viento  
Velocidad del viento 6 mph ()    
Velocidad máxima del viento 13 mph    
Max Gust Speed -    
Visibilidad 7.6 Millas    
Eventos Lluvia    
Averages and records for this station are not official NWS values.
T = Trace of Precipitation, MM = Missing Value Source: Averaged Metar Reports

Daily Weather History Graph

Daily Weather History Graph

Search for Another Location

Airport or City:

Astronomía

Jan. 12, 2018 Salida Puesta
Hora real 5:17 AM -03 6:06 PM -03
Crepúsculo civil 4:53 AM -03 6:29 PM -03
Crepúsculo náutico 4:26 AM -03 6:56 PM -03
Crepúsculo astronómico 3:59 AM -03 7:23 PM -03
Luna 1:44 AM -03 (1/12) 2:36 PM -03 (1/12)
Horas de luz 13h 35m
Horas de luz
12h 49m
Creciente menguante, 17% of the Moon is Illuminated
Ene 12
Creciente menguante
Ene 16
Nueva
Ene 24
Cuarto creciente
Ene 31
Luna llena
Feb 7
Cuarto menguante

Hourly Weather History & Observations

Hora (-03) Temp. Índice de calor Punto de rocío Humedad Presión Visibilidad Wind Dir Velocidad del viento Velocidad de ráfagas Precip Eventos Condiciones
12:00 AM 79 ° F - 70 ° F 68% 29.98 pul 12 mi ESE 6.9 mph - -   Parcialmente nublado
12:00 AM 78.8 ° F - 69.8 ° F 74% 29.98 pul 6.2 mi ESE 6.9 mph - N/A   Nubes dispersas
1:00 AM 78.8 ° F - 69.8 ° F 74% 29.95 pul 6.2 mi SE 5.8 mph - N/A   Nubes dispersas
2:00 AM 77.0 ° F - 71.6 ° F 83% 29.92 pul 6.2 mi NE 4.6 mph - N/A   Nubes dispersas
3:00 AM 75 ° F - 72 ° F 87% 29.93 pul 12 mi Oeste 4.6 mph - -   Parcialmente nublado
3:00 AM 75.2 ° F - 71.6 ° F 89% 29.92 pul 6.2 mi Oeste 4.6 mph - N/A   Nubes dispersas
4:00 AM 75.2 ° F - 71.6 ° F 89% 29.92 pul 6.2 mi NO 3.5 mph - N/A   Nubes dispersas
5:00 AM 73.4 ° F - 71.6 ° F 94% 29.95 pul 6.2 mi NO 2.3 mph - N/A   Nubes dispersas
6:00 AM 74 ° F - 71 ° F 86% 29.95 pul 12 mi NNO 2.3 mph - - Lluvia Lluvia débil
6:00 AM 73.4 ° F - 71.6 ° F 94% 29.95 pul 6.2 mi NNO 2.3 mph - N/A   Nubes dispersas
7:00 AM 78.8 ° F - 73.4 ° F 83% 29.95 pul 6.2 mi Variable 1.2 mph - N/A   Nubes dispersas
8:00 AM 80.6 ° F 84.6 ° F 71.6 ° F 74% 29.98 pul 6.2 mi Norte 3.5 mph - N/A   Nubes dispersas
9:00 AM 83 ° F - 72 ° F 63% 29.99 pul 12 mi Este 5.8 mph - -   Parcialmente nublado
9:00 AM 82.4 ° F 88.2 ° F 73.4 ° F 74% 29.98 pul 6.2 mi Este 5.8 mph - N/A   Nubes dispersas
10:00 AM 84.2 ° F 88.4 ° F 69.8 ° F 62% 29.98 pul 6.2 mi ESE 8.1 mph - N/A   Muy nublado
11:00 AM 84.2 ° F 89.6 ° F 71.6 ° F 66% 29.98 pul 6.2 mi Este 9.2 mph - N/A   Muy nublado
12:00 PM 84 ° F - 72 ° F 58% 29.96 pul 12 mi ESE 10.4 mph - -   Parcialmente nublado
12:00 PM 84.2 ° F 89.6 ° F 71.6 ° F 66% 29.95 pul 6.2 mi ESE 10.4 mph - N/A   Nubes dispersas
1:00 PM 84.2 ° F 89.6 ° F 71.6 ° F 66% 29.95 pul 6.2 mi SE 11.5 mph - N/A   Nubes dispersas
2:00 PM 84.2 ° F 90.9 ° F 73.4 ° F 70% 29.92 pul 6.2 mi SE 10.4 mph - N/A   Nubes dispersas
3:00 PM 84 ° F - 72 ° F 59% 29.91 pul 12 mi ESE 12.7 mph - -   Parcialmente nublado
3:00 PM 84.2 ° F 89.6 ° F 71.6 ° F 66% 29.92 pul 6.2 mi ESE 12.7 mph - N/A   Nubes dispersas
4:00 PM 84.2 ° F 89.6 ° F 71.6 ° F 66% 29.89 pul 6.2 mi ESE 10.4 mph - N/A   Nubes dispersas
5:00 PM 84.2 ° F 88.4 ° F 69.8 ° F 62% 29.92 pul 6.2 mi ESE 11.5 mph - N/A   Nubes dispersas
6:00 PM 81 ° F - 71 ° F 63% 29.91 pul 12 mi Este 10.4 mph - -   Nubes dispersas
6:00 PM 80.6 ° F 83.9 ° F 69.8 ° F 70% 29.92 pul 6.2 mi Este 10.4 mph - N/A   Parcialmente nublado
7:00 PM 80.6 ° F 84.6 ° F 71.6 ° F 74% 29.92 pul 6.2 mi ESE 9.2 mph - N/A   Parcialmente nublado
8:00 PM 80.6 ° F 83.9 ° F 69.8 ° F 70% 29.92 pul 6.2 mi ESE 8.1 mph - N/A   Parcialmente nublado
9:00 PM 80 ° F - 70 ° F 65% 29.95 pul 12 mi Este 11.5 mph - -   Nubes dispersas
9:00 PM 80.6 ° F 83.9 ° F 69.8 ° F 70% 29.95 pul 6.2 mi Este 11.5 mph - N/A   Parcialmente nublado
10:00 PM 78.8 ° F - 71.6 ° F 78% 29.95 pul 6.2 mi Este 10.4 mph - N/A   Parcialmente nublado
11:00 PM 80.6 ° F 83.9 ° F 69.8 ° F 70% 29.95 pul 6.2 mi Este 10.4 mph - N/A   Parcialmente nublado